[Date Prev][Date Next][Thread Prev][Thread Next] - [Date Index][Thread Index][Author Index]

2 Line ISS Keps 7-18



ISS
1 25544U 98067A   02199.48230462  .00021030  00000-0  26278-3 0  6733
2 25544  51.6339 255.8603 0008454  11.9773 348.1942 15.59127319208911


----
Via the sarex mailing list at AMSAT.ORG courtesy of AMSAT-NA.
To unsubscribe, send "unsubscribe sarex" to Majordomo@amsat.org



AMSAT Top AMSAT Home